﻿測定場所 (Monitoring sites),日付 (Measurement date),時間 (Measurement time),線量率 最大値 (max) μGy/h,線量率 最小値 (min) μGy/h,線量率 平均値 (average) μGy/h,
新宿 (Shinjuku),2012-02-12,23:01～24:00,0.0547,0.0475,0.0502,
新宿 (Shinjuku),2012-02-12,22:01～23:00,0.0536,0.0467,0.0500,
新宿 (Shinjuku),2012-02-12,21:01～22:00,0.0529,0.0460,0.0502,
新宿 (Shinjuku),2012-02-12,20:01～21:00,0.0532,0.0471,0.0502,
新宿 (Shinjuku),2012-02-12,19:01～20:00,0.0548,0.0459,0.0504,
新宿 (Shinjuku),2012-02-12,18:01～19:00,0.0529,0.0474,0.0502,
新宿 (Shinjuku),2012-02-12,17:01～18:00,0.0522,0.0459,0.0497,
新宿 (Shinjuku),2012-02-12,16:01～17:00,0.0527,0.0469,0.0502,
新宿 (Shinjuku),2012-02-12,15:01～16:00,0.0546,0.0476,0.0501,
新宿 (Shinjuku),2012-02-12,14:01～15:00,0.0533,0.0475,0.0508,
新宿 (Shinjuku),2012-02-12,13:01～14:00,0.0543,0.0470,0.0509,
新宿 (Shinjuku),2012-02-12,12:01～13:00,0.0541,0.0475,0.0504,
新宿 (Shinjuku),2012-02-12,11:01～12:00,0.0546,0.0469,0.0506,
新宿 (Shinjuku),2012-02-12,10:01～11:00,0.0557,0.0471,0.0507,
新宿 (Shinjuku),2012-02-12,09:01～10:00,0.0545,0.0471,0.0511,
新宿 (Shinjuku),2012-02-12,08:01～09:00,0.0555,0.0489,0.0512,
新宿 (Shinjuku),2012-02-12,07:01～08:00,0.0545,0.0477,0.0510,
新宿 (Shinjuku),2012-02-12,06:01～07:00,0.0550,0.0468,0.0511,
新宿 (Shinjuku),2012-02-12,05:01～06:00,0.0554,0.0477,0.0508,
新宿 (Shinjuku),2012-02-12,04:01～05:00,0.0537,0.0464,0.0506,
新宿 (Shinjuku),2012-02-12,03:01～04:00,0.0538,0.0475,0.0506,
新宿 (Shinjuku),2012-02-12,02:01～03:00,0.0544,0.0478,0.0510,
新宿 (Shinjuku),2012-02-12,01:01～02:00,0.0540,0.0477,0.0507,
新宿 (Shinjuku),2012-02-12,00:01～01:00,0.0541,0.0477,0.0506,
新宿 (Shinjuku),2012-02-11,23:01～24:00,0.0535,0.0474,0.0505,
新宿 (Shinjuku),2012-02-11,22:01～23:00,0.0534,0.0476,0.0505,
新宿 (Shinjuku),2012-02-11,21:01～22:00,0.0527,0.0460,0.0500,
新宿 (Shinjuku),2012-02-11,20:01～21:00,0.0525,0.0463,0.0501,
新宿 (Shinjuku),2012-02-11,19:01～20:00,0.0536,0.0463,0.0498,
新宿 (Shinjuku),2012-02-11,18:01～19:00,0.0538,0.0471,0.0502,
新宿 (Shinjuku),2012-02-11,17:01～18:00,0.0538,0.0472,0.0506,
新宿 (Shinjuku),2012-02-11,16:01～17:00,0.0533,0.0468,0.0506,
新宿 (Shinjuku),2012-02-11,15:01～16:00,0.0544,0.0472,0.0503,
新宿 (Shinjuku),2012-02-11,14:01～15:00,0.0545,0.0481,0.0510,
新宿 (Shinjuku),2012-02-11,13:01～14:00,0.0549,0.0479,0.0506,
新宿 (Shinjuku),2012-02-11,12:01～13:00,0.0546,0.0474,0.0505,
新宿 (Shinjuku),2012-02-11,11:01～12:00,0.0547,0.0466,0.0506,
新宿 (Shinjuku),2012-02-11,10:01～11:00,0.0544,0.0482,0.0512,
新宿 (Shinjuku),2012-02-11,09:01～10:00,0.0551,0.0475,0.0509,
新宿 (Shinjuku),2012-02-11,08:01～09:00,0.0535,0.0463,0.0504,
新宿 (Shinjuku),2012-02-11,07:01～08:00,0.0535,0.0474,0.0507,
新宿 (Shinjuku),2012-02-11,06:01～07:00,0.0538,0.0475,0.0508,
新宿 (Shinjuku),2012-02-11,05:01～06:00,0.0539,0.0477,0.0507,
新宿 (Shinjuku),2012-02-11,04:01～05:00,0.0537,0.0471,0.0509,
新宿 (Shinjuku),2012-02-11,03:01～04:00,0.0540,0.0474,0.0511,
新宿 (Shinjuku),2012-02-11,02:01～03:00,0.0538,0.0478,0.0505,
新宿 (Shinjuku),2012-02-11,01:01～02:00,0.0543,0.0478,0.0509,
新宿 (Shinjuku),2012-02-11,00:01～01:00,0.0537,0.0481,0.0505,
新宿 (Shinjuku),2012-02-10,23:01～24:00,0.0544,0.0467,0.0504,
新宿 (Shinjuku),2012-02-10,22:01～23:00,0.0535,0.0472,0.0506,
新宿 (Shinjuku),2012-02-10,21:01～22:00,0.0541,0.0474,0.0509,
新宿 (Shinjuku),2012-02-10,20:01～21:00,0.0536,0.0473,0.0506,
新宿 (Shinjuku),2012-02-10,19:01～20:00,0.0533,0.0473,0.0502,
新宿 (Shinjuku),2012-02-10,18:01～19:00,0.0530,0.0481,0.0502,
新宿 (Shinjuku),2012-02-10,17:01～18:00,0.0532,0.0456,0.0504,
新宿 (Shinjuku),2012-02-10,16:01～17:00,0.0527,0.0463,0.0501,
新宿 (Shinjuku),2012-02-10,15:01～16:00,0.0529,0.0467,0.0504,
新宿 (Shinjuku),2012-02-10,14:01～15:00,0.0543,0.0479,0.0508,
新宿 (Shinjuku),2012-02-10,13:01～14:00,0.0551,0.0474,0.0512,
新宿 (Shinjuku),2012-02-10,12:01～13:00,0.0534,0.0477,0.0507,
新宿 (Shinjuku),2012-02-10,11:01～12:00,0.0550,0.0471,0.0516,
新宿 (Shinjuku),2012-02-10,10:01～11:00,0.0563,0.0463,0.0516,
新宿 (Shinjuku),2012-02-10,09:01～10:00,0.0544,0.0481,0.0516,
新宿 (Shinjuku),2012-02-10,08:01～09:00,0.0543,0.0475,0.0513,
新宿 (Shinjuku),2012-02-10,07:01～08:00,0.0541,0.0477,0.0511,
新宿 (Shinjuku),2012-02-10,06:01～07:00,0.0570,0.0487,0.0515,
新宿 (Shinjuku),2012-02-10,05:01～06:00,0.0537,0.0474,0.0511,
新宿 (Shinjuku),2012-02-10,04:01～05:00,0.0550,0.0471,0.0508,
新宿 (Shinjuku),2012-02-10,03:01～04:00,0.0543,0.0482,0.0509,
新宿 (Shinjuku),2012-02-10,02:01～03:00,0.0557,0.0473,0.0509,
新宿 (Shinjuku),2012-02-10,01:01～02:00,0.0539,0.0474,0.0506,
新宿 (Shinjuku),2012-02-10,00:01～01:00,0.0553,0.0469,0.0505,
新宿 (Shinjuku),2012-02-09,23:01～24:00,0.0549,0.0463,0.0508,
新宿 (Shinjuku),2012-02-09,22:01～23:00,0.0547,0.0479,0.0506,
新宿 (Shinjuku),2012-02-09,21:01～22:00,0.0537,0.0473,0.0505,
新宿 (Shinjuku),2012-02-09,20:01～21:00,0.0533,0.0472,0.0502,
新宿 (Shinjuku),2012-02-09,19:01～20:00,0.0533,0.0465,0.0504,
新宿 (Shinjuku),2012-02-09,18:01～19:00,0.0538,0.0467,0.0502,
新宿 (Shinjuku),2012-02-09,17:01～18:00,0.0536,0.0473,0.0501,
新宿 (Shinjuku),2012-02-09,16:01～17:00,0.0533,0.0456,0.0499,
新宿 (Shinjuku),2012-02-09,15:01～16:00,0.0531,0.0472,0.0502,
新宿 (Shinjuku),2012-02-09,14:01～15:00,0.0551,0.0482,0.0507,
新宿 (Shinjuku),2012-02-09,13:01～14:00,0.0549,0.0471,0.0505,
新宿 (Shinjuku),2012-02-09,12:01～13:00,0.0541,0.0471,0.0506,
新宿 (Shinjuku),2012-02-09,11:01～12:00,0.0538,0.0479,0.0508,
新宿 (Shinjuku),2012-02-09,10:01～11:00,0.0537,0.0473,0.0508,
新宿 (Shinjuku),2012-02-09,09:01～10:00,0.0539,0.0478,0.0507,
新宿 (Shinjuku),2012-02-09,08:01～09:00,0.0550,0.0469,0.0506,
新宿 (Shinjuku),2012-02-09,07:01～08:00,0.0532,0.0475,0.0506,
新宿 (Shinjuku),2012-02-09,06:01～07:00,0.0555,0.0478,0.0506,
新宿 (Shinjuku),2012-02-09,05:01～06:00,0.0543,0.0472,0.0507,
新宿 (Shinjuku),2012-02-09,04:01～05:00,0.0535,0.0464,0.0501,
新宿 (Shinjuku),2012-02-09,03:01～04:00,0.0550,0.0463,0.0507,
新宿 (Shinjuku),2012-02-09,02:01～03:00,0.0541,0.0474,0.0508,
新宿 (Shinjuku),2012-02-09,01:01～02:00,0.0546,0.0474,0.0509,
新宿 (Shinjuku),2012-02-09,00:01～01:00,0.0550,0.0476,0.0511,
新宿 (Shinjuku),2012-02-08,23:01～24:00,0.0540,0.0475,0.0508,
新宿 (Shinjuku),2012-02-08,22:01～23:00,0.0536,0.0486,0.0510,
新宿 (Shinjuku),2012-02-08,21:01～22:00,0.0551,0.0486,0.0514,
新宿 (Shinjuku),2012-02-08,20:01～21:00,0.0548,0.0452,0.0513,
新宿 (Shinjuku),2012-02-08,19:01～20:00,0.0556,0.0491,0.0521,
新宿 (Shinjuku),2012-02-08,18:01～19:00,0.0548,0.0472,0.0512,
新宿 (Shinjuku),2012-02-08,17:01～18:00,0.0544,0.0477,0.0510,
新宿 (Shinjuku),2012-02-08,16:01～17:00,0.0555,0.0478,0.0514,
新宿 (Shinjuku),2012-02-08,15:01～16:00,0.0541,0.0486,0.0513,
新宿 (Shinjuku),2012-02-08,14:01～15:00,0.0560,0.0462,0.0515,
新宿 (Shinjuku),2012-02-08,13:01～14:00,0.0567,0.0485,0.0518,
新宿 (Shinjuku),2012-02-08,12:01～13:00,0.0557,0.0481,0.0518,
新宿 (Shinjuku),2012-02-08,11:01～12:00,0.0563,0.0491,0.0524,
新宿 (Shinjuku),2012-02-08,10:01～11:00,0.0557,0.0486,0.0522,
新宿 (Shinjuku),2012-02-08,09:01～10:00,0.0559,0.0492,0.0526,
新宿 (Shinjuku),2012-02-08,08:01～09:00,0.0562,0.0491,0.0522,
新宿 (Shinjuku),2012-02-08,07:01～08:00,0.0592,0.0480,0.0519,
新宿 (Shinjuku),2012-02-08,06:01～07:00,0.0560,0.0473,0.0515,
新宿 (Shinjuku),2012-02-08,05:01～06:00,0.0533,0.0474,0.0510,
新宿 (Shinjuku),2012-02-08,04:01～05:00,0.0545,0.0476,0.0510,
新宿 (Shinjuku),2012-02-08,03:01～04:00,0.0534,0.0476,0.0507,
新宿 (Shinjuku),2012-02-08,02:01～03:00,0.0548,0.0469,0.0508,
新宿 (Shinjuku),2012-02-08,01:01～02:00,0.0548,0.0463,0.0507,
新宿 (Shinjuku),2012-02-08,00:01～01:00,0.0551,0.0490,0.0513,
新宿 (Shinjuku),2012-02-07,23:01～24:00,0.0553,0.0482,0.0512,
新宿 (Shinjuku),2012-02-07,22:01～23:00,0.0548,0.0482,0.0517,
新宿 (Shinjuku),2012-02-07,21:01～22:00,0.0552,0.0482,0.0517,
新宿 (Shinjuku),2012-02-07,20:01～21:00,0.0552,0.0483,0.0510,
新宿 (Shinjuku),2012-02-07,19:01～20:00,0.0556,0.0485,0.0513,
新宿 (Shinjuku),2012-02-07,18:01～19:00,0.0542,0.0473,0.0509,
新宿 (Shinjuku),2012-02-07,17:01～18:00,0.0555,0.0488,0.0518,
新宿 (Shinjuku),2012-02-07,16:01～17:00,0.0550,0.0484,0.0519,
新宿 (Shinjuku),2012-02-07,15:01～16:00,0.0554,0.0483,0.0516,
新宿 (Shinjuku),2012-02-07,14:01～15:00,0.0560,0.0487,0.0524,
新宿 (Shinjuku),2012-02-07,13:01～14:00,0.0574,0.0479,0.0525,
新宿 (Shinjuku),2012-02-07,12:01～13:00,0.0573,0.0507,0.0539,
新宿 (Shinjuku),2012-02-07,11:01～12:00,0.0593,0.0526,0.0562,
新宿 (Shinjuku),2012-02-07,10:01～11:00,0.0631,0.0557,0.0591,
新宿 (Shinjuku),2012-02-07,09:01～10:00,0.0622,0.0561,0.0599,
新宿 (Shinjuku),2012-02-07,08:01～09:00,0.0647,0.0560,0.0603,
新宿 (Shinjuku),2012-02-07,07:01～08:00,0.0618,0.0546,0.0583,
新宿 (Shinjuku),2012-02-07,06:01～07:00,0.0625,0.0537,0.0573,
新宿 (Shinjuku),2012-02-07,05:01～06:00,0.0594,0.0532,0.0562,
新宿 (Shinjuku),2012-02-07,04:01～05:00,0.0593,0.0531,0.0561,
新宿 (Shinjuku),2012-02-07,03:01～04:00,0.0613,0.0518,0.0568,
新宿 (Shinjuku),2012-02-07,02:01～03:00,0.0598,0.0522,0.0557,
新宿 (Shinjuku),2012-02-07,01:01～02:00,0.0567,0.0484,0.0529,
新宿 (Shinjuku),2012-02-07,00:01～01:00,0.0552,0.0477,0.0514,
新宿 (Shinjuku),2012-02-06,23:01～24:00,0.0543,0.0472,0.0508,
新宿 (Shinjuku),2012-02-06,22:01～23:00,0.0543,0.0469,0.0506,
新宿 (Shinjuku),2012-02-06,21:01～22:00,0.0550,0.0473,0.0506,
新宿 (Shinjuku),2012-02-06,20:01～21:00,0.0541,0.0468,0.0511,
新宿 (Shinjuku),2012-02-06,19:01～20:00,0.0545,0.0481,0.0510,
新宿 (Shinjuku),2012-02-06,18:01～19:00,0.0561,0.0484,0.0520,
新宿 (Shinjuku),2012-02-06,17:01～18:00,0.0578,0.0507,0.0540,
新宿 (Shinjuku),2012-02-06,16:01～17:00,0.0599,0.0520,0.0555,
新宿 (Shinjuku),2012-02-06,15:01～16:00,0.0606,0.0521,0.0558,
新宿 (Shinjuku),2012-02-06,14:01～15:00,0.0591,0.0534,0.0557,
新宿 (Shinjuku),2012-02-06,13:01～14:00,0.0585,0.0475,0.0539,
新宿 (Shinjuku),2012-02-06,12:01～13:00,0.0579,0.0487,0.0521,
新宿 (Shinjuku),2012-02-06,11:01～12:00,0.0557,0.0488,0.0522,
新宿 (Shinjuku),2012-02-06,10:01～11:00,0.0566,0.0493,0.0529,
新宿 (Shinjuku),2012-02-06,09:01～10:00,0.0569,0.0490,0.0522,
新宿 (Shinjuku),2012-02-06,08:01～09:00,0.0552,0.0481,0.0517,
新宿 (Shinjuku),2012-02-06,07:01～08:00,0.0566,0.0487,0.0520,
新宿 (Shinjuku),2012-02-06,06:01～07:00,0.0577,0.0483,0.0521,
新宿 (Shinjuku),2012-02-06,05:01～06:00,0.0552,0.0481,0.0514,
新宿 (Shinjuku),2012-02-06,04:01～05:00,0.0554,0.0477,0.0510,
新宿 (Shinjuku),2012-02-06,03:01～04:00,0.0549,0.0474,0.0512,
新宿 (Shinjuku),2012-02-06,02:01～03:00,0.0554,0.0478,0.0510,
新宿 (Shinjuku),2012-02-06,01:01～02:00,0.0549,0.0480,0.0513,
新宿 (Shinjuku),2012-02-06,00:01～01:00,0.0540,0.0474,0.0511,
